Location: Aldenham
(51.6667°N, 0.3500°W)
Time: 17:25:47
(UTC+00:00)

Explorer 7 - Pass Details

Date: 15 February 2026
Orbit: 430 x 542 km, 50.2° (Epoch: 8 March)

Event Time Altitude Azimuth Distance (km) Brightness Sun altitude
Rises 16:05:12 0° 214° (SW) 2,444 11.6 9.0°
Reaches altitude 10° 16:07:36 10° 199° (SSW) 1,595 10.2 8.7°
Maximum altitude 16:10:26 22° 147° (SSE) 1,068 8.4 8.3°
Drops below altitude 10° 16:13:22 10° 95° (E) 1,654 8.8 7.9°
Sets 16:15:54 0° 80° (E) 2,562 9.6 7.6°
